North Adams, MA

11:05 AM EDT on April 26, 2017 (GMT -0400)
Harriman And West

Weather History for KAQW - September, 2012

Change the Weather History Date:

Tuesday, September 11, 2012

  Actual Average Record
Temperature  
Mean Temperature 53 °F -  
Max Temperature 69 °F 72 °F 91 °F (2013)
Min Temperature 37 °F 50 °F 37 °F (2005)
Degree Days  
Heating Degree Days 12    
Growing Degree Days 3 (Base 50)    
Moisture  
Dew Point 40 °F    
Average Humidity 79    
Maximum Humidity 100    
Minimum Humidity 36    
Precipitation  
Precipitation 0.00 in - - ()
Sea Level Pressure  
Sea Level Pressure 30.24 in    
Wind  
Wind Speed 0 mph (NW)    
Max Wind Speed 7 mph    
Max Gust Speed -    
Visibility 8 miles    
Events Fog    
Averages and records for this station are not official NWS values.
T = Trace of Precipitation, MM = Missing Value Source: NWS Daily Summary

Daily Weather History Graph

Daily Weather History Graph

Search for Another Location

Airport or City:

Trip Planner

Search our weather history database for the weather conditions in past years. The results will help you decide how hot, cold, wet, or windy it might be!

Date:

Astronomy

Sep. 11, 2012 Rise Set
Actual Time 6:28 AM EDT 7:08 PM EDT
Civil Twilight 6:00 AM EDT 7:37 PM EDT
Nautical Twilight 5:26 AM EDT 8:10 PM EDT
Astronomical Twilight 4:51 AM EDT 8:45 PM EDT
Moon 1:38 AM EDT (9/11) 4:21 PM EDT (9/11)
Length of Visible Light 13h 37m
Length of Day
12h 40m
Waning Crescent, 21% of the Moon is Illuminated
Sep 11
Waning Crescent
Sep 15
New
Sep 22
First Quarter
Sep 29
Full
Oct 8
Last Quarter

Hourly Weather History & Observations

Time (EDT) Temp. Dew Point Humidity Pressure Visibility Wind Dir Wind Speed Gust Speed Precip Events Conditions
12:52 AM 42.1 °F 39.9 °F 92% 30.14 in 10.0 mi Calm Calm - N/A   Clear
1:52 AM 39.9 °F 39.0 °F 97% 30.15 in 10.0 mi Calm Calm - N/A   Partly Cloudy
2:52 AM 39.0 °F 37.9 °F 96% 30.16 in 10.0 mi Calm Calm - N/A   Clear
3:52 AM 39.0 °F 37.0 °F 93% 30.18 in 10.0 mi Calm Calm - N/A   Clear
5:52 AM 37.9 °F 36.0 °F 93% 30.22 in 10.0 mi Calm Calm - N/A   Clear
6:23 AM 37.4 °F 35.6 °F 93% 30.22 in 10.0 mi Calm Calm - N/A   Partly Cloudy
6:52 AM 37.0 °F 35.1 °F 93% 30.25 in 10.0 mi Calm Calm - N/A   Partly Cloudy
7:05 AM 37.4 °F 35.6 °F 93% 30.24 in 10.0 mi Calm Calm - N/A   Mostly Cloudy
7:11 AM 37.4 °F 37.4 °F 100% 30.24 in 1.2 mi Calm Calm - N/A   Mostly Cloudy
7:18 AM 37.4 °F 37.4 °F 100% 30.25 in 0.2 mi Calm Calm - N/A Fog Fog
7:28 AM 39.2 °F 37.4 °F 93% 30.25 in 0.8 mi Calm Calm - N/A   Overcast
7:30 AM 39.2 °F 37.4 °F 93% 30.26 in 1.5 mi Calm Calm - N/A   Overcast
7:33 AM 39.2 °F 37.4 °F 93% 30.25 in 3.0 mi Calm Calm - N/A   Overcast
7:52 AM 42.1 °F 39.9 °F 92% 30.27 in 10.0 mi Calm Calm - N/A   Scattered Clouds
8:52 AM 48.9 °F 44.1 °F 83% 30.27 in 10.0 mi Calm Calm - N/A   Clear
9:52 AM 55.0 °F 43.0 °F 64% 30.28 in 10.0 mi West 6.9 mph - N/A   Clear
11:52 AM 62.1 °F 42.1 °F 48% 30.26 in 10.0 mi Variable 3.5 mph - N/A   Clear
12:52 PM 64.9 °F 39.9 °F 40% 30.26 in 10.0 mi Variable 3.5 mph - N/A   Clear
1:52 PM 66.0 °F 39.9 °F 38% 30.25 in 10.0 mi Calm Calm - N/A   Clear
2:52 PM 68.0 °F 41.0 °F 37% 30.23 in 10.0 mi NNW 6.9 mph - N/A   Clear
3:52 PM 69.1 °F 41.0 °F 36% 30.22 in 10.0 mi Calm Calm - N/A   Clear
4:52 PM 64.9 °F 42.1 °F 43% 30.23 in 10.0 mi Calm Calm - N/A   Clear
5:52 PM 64.9 °F 43.0 °F 45% 30.24 in 10.0 mi Calm Calm - N/A   Clear
7:52 PM 52.0 °F 46.9 °F 83% 30.26 in 10.0 mi Calm Calm - N/A   Clear
8:52 PM 48.9 °F 46.0 °F 90% 30.28 in 10.0 mi Calm Calm - N/A   Clear
9:52 PM 46.9 °F 44.1 °F 90% 30.29 in 10.0 mi Calm Calm - N/A   Clear
10:52 PM 45.0 °F 44.1 °F 97% 30.30 in 10.0 mi Calm Calm - N/A   Clear
11:52 PM 45.0 °F 43.0 °F 93% 30.31 in 10.0 mi Calm Calm - N/A   Clear